Вернуться в каталог

CZ-6A DEB

АктивенPO
NORAD 61311·DEBRIS·🇨🇳 China

Запущен Aug 6, 2024 с Taiyuan Satellite Launch Center

Loading…

Ближайшие Пролёты (ближайшие 24 часа)

TLE

СвежийSource: Space-Track

Эпоха: Sep 14, 2026, 11:32 UTC

1 61311U 24140TY  26257.48116032  .00002231  00000-0  24579-3 0  9998
2 61311  89.1120 268.0548 0156660 229.1671 129.5884 14.78565136110128

Отслеживайте CZ-6A DEB в реальном времени с AllMySat

Download on the App Store